Flag for U.S.A. Weather past 2 weeks in Berkeley, California, U.S.A.

Now
60 °F

Partly sunny.


Feels Like: 60 °F
Forecast: 44 / 60 °F
Wind: 7 mph from Northwest

Location: Metro Oakland International Airport

Current Time: Jan 26, 2015 at 1:35:29 PM

Latest Report: Jan 26, 2015 at 12:53 PM


Visibility: 10 mi

Pressure: 29.99 "Hg

Humidity: 56%

Dew point: 44 °F

Location of BerkeleyLocation

Historic Weather in Berkeley — Graph

°F

Berkeley temperature yesterday

Maximum temperature yesterday: 59 °F (at 4:53 PM)
Minimum temperature yesterday: 42 °F (at 6:53 AM)
Average temperature yesterday: 49 °F

Past Weeks' High & Low Weather Summary

 TemperatureHumidityPressure
High69 °F (Jan 24, 12:53 PM)100% (Jan 13, 9:53 AM)30.37 "Hg (Jan 13, 9:53 AM)
Low39 °F (Jan 14, 7:53 AM)35% (Jan 24, 11:53 AM)30.01 "Hg (Jan 25, 4:53 PM)
Average52 °F80%30.20 "Hg
* Reported Jan 11 11:53 AM — Jan 26 11:53 AM, Berkeley, Weather by CustomWeather, © 2014

Note: Actual official high and low records may vary slightly from our data, if they occured in-between our weather recording intervals... More about our weather records

Advertising

Berkeley weather history for previous 24 hours

 ConditionsComfort  
Time TempWeatherWind HumidityBarometerVisibility
11:53 AM
Jan 26
57 °FScattered clouds.8 mph60%30.02 "Hg10 mi
10:53 AM54 °FPartly sunny.6 mph69%30.04 "Hg10 mi
9:53 AM53 °FOvercast.No wind72%30.04 "Hg10 mi
8:53 AM50 °FPartly sunny.3 mph80%30.03 "Hg10 mi
7:53 AM46 °FPartly sunny.No wind83%30.03 "Hg10 mi
6:53 AM44 °FOvercast.No wind85%30.03 "Hg10 mi
5:53 AM45 °FClear.No wind86%30.02 "Hg10 mi
4:53 AM45 °FPassing clouds.No wind90%30.02 "Hg9 mi
3:53 AM41 °FPassing clouds.3 mph89%30.02 "Hg10 mi
2:53 AM44 °FPassing clouds.5 mph85%30.03 "Hg10 mi
1:53 AM44 °FPassing clouds.5 mph85%30.04 "Hg10 mi
12:53 AM44 °FPassing clouds.3 mph82%30.04 "Hg10 mi
11:53 PM
Jan 25
44 °FPassing clouds.3 mph82%30.05 "Hg10 mi
10:53 PM45 °FPassing clouds.5 mph82%30.05 "Hg10 mi
9:53 PM48 °FPassing clouds.No wind83%30.04 "Hg10 mi
8:53 PM49 °FClear.3 mph84%30.03 "Hg10 mi
7:53 PM50 °FClear.5 mph77%30.03 "Hg10 mi
6:53 PM52 °FClear.5 mph72%30.03 "Hg10 mi
5:53 PM53 °FClear.No wind66%30.01 "Hg10 mi
4:53 PM59 °FSunny.No wind54%30.01 "Hg9 mi
3:53 PM57 °FSunny.3 mph60%30.02 "Hg9 mi
2:53 PM56 °FSunny.5 mph67%30.03 "Hg9 mi
1:53 PM56 °FSunny.7 mph67%30.04 "Hg9 mi
Weather by CustomWeather, © 2014

See weather overviewHow to use our weather pages